Tracking 19254 objects as of 22-Oct-2018
HD Live streaming from Space Station
objects crossing your sky now

FENGYUN 1C DEB

Track FENGYUN 1C DEB now!
10-day predictions


NORAD ID: 31459
Int'l Code: 1999-025BUX
Perigee: 732.0 km
Apogee: 911.4 km
Inclination: 98.1 °
Period: 101.2 minutes
Semi major axis: 7192 km
RCS: 0.0089 m2 (small)
Launch date: May 10, 1999
Source: People's Republic of China (PRC)
Launch site: Taiyaun Space Center, China (TSC)

Note: This is SATELLITE DEBRIS
aabbcc
Your satellite tracking list
Your tracking list is empty




NASA's NSSDC Master Catalog

Two Line Element Set (TLE):
1 31459U 99025BUX 18294.37060965  .00000613  00000-0  26664-3 0  9994
2 31459  98.1305 340.4655 0124714 322.6498  36.6060 14.23206169595914
Source of the keplerian elements: AFSPC